STARLINK-30775, 58139

Orbit data source: Space-Track

STARLINK-30775, 58139 is a payload satellite owned by SpaceX/Seattle (US) in LEO that was launched on Sun, 22 Oct 2023 UTC via an FALCON 9 launch vehicle from the Air Force Eastern Test Range (AFETR). Payload-class satellites include a variety of spacecraft equipped with specific instruments for various scientific and technological missions. These include communications satellites like Starlink; space stations such as the ISS; scientific satellites like the Hubble; Earth observation satellites from companies like Planet Labs, Umbra, and HawkEye 360; GPS; miniature CubeSats for education and research; and military/defense satellites.

Loading next visibility...
Identifier
58139, 2023-162X
Orbit
LEO
Country
Flag of USUS
Related business
Manufacturer
SpaceX/Seattle
Mission
Operational Commercial Communications
Bus & Motor
STARLINK V2M, Unknown motor
Mass
730 kg wet, ~700 kg dry
Launch date (UTC)
2023-10-22 (3 years ago)
Launch vehicle
FALCON 9
Launch site
Air Force Eastern Test Range (AFETR)
Object type
Payload
Rocket body
Debris
Shape & HBR
Box + 2 Pan, 17.7 m
Radar Cross Section
33.884 m², Large (>1 m²)

Expand to show TLE details & history
Last TLE update: 3 days ago

TLE from 3 days ago
0 STARLINK-30775
1 58139U 23162X   26170.57789937  .00000550  00000-0  29510-4 0  9992
2 58139  43.0029 276.7297 0000714 264.4173  95.6597 15.27585706147891
Epoch: 2026-06-19T13:52Z
TLE epoch observation values (Epoch: 2026-06-19T13:52:10.505Z)
Latitude
-0.00004°
Longitude
160.88102°
Altitude
482.856 km
Speed
7.626 km/s
True Right ascension
18h 26m 55s
True Declination
0° 00' 00"
Sunlit
Object was in full shadow at epoch
Visualization orbit readout
Latitude
Unknown
Longitude
Unknown
Altitude
Unknown
Speed
Unknown
Apparent Right ascension
Unknown
Apparent Declination
Unknown
Sunlit
N/A
Visualization observer readout
Local Sidereal Time
21:52:23
Azimuth
Unknown
Elevation
Unknown
Doppler factor
Unknown
Orbital elements
Apogee altitude
485.467 km
Perigee altitude
484.487 km
Semi-major axis
6,863.114 km
Eccentricity
0.00007
Inclination
43.0029°
RAAN
276.7297°
Arg. of periapsis
264.4173°
True anomaly
95.66784°
Mean anomaly
95.6597°
Eccentric anomaly
95.66377°
Mean motion
3.81734 °/min
Orbital period
94.31 mins
BSTAR
0.00002951
Loading maneuver chart data...
Computing Atmospheric mass density...
Loading historical data...
Loading historical data...
Loading historical data...
Loading historical data...
Loading historical data...
Loading historical data...
Loading historical data...

Documentation

Showing up to 5 results
|